When you browse on this site, cookies collect data to enhance your experience and personalize the content and advertising you see.
Visit our Privacy Policy to learn more. By continuing to use the site, you agree to this use of cookies and data.
  • In Spain
  • List of Countries
  • For 7 days
  • Water Temperature
  • Weather Map
  • Weather Widgets
  • user-avatar
    Login

    Hourly Weather Tirana

    Today, 17 October, Thursday

    Time Temperature Precipitation Wind Pressure Humidity
    00:00 +18°C° 0 mm 0 mps 755 mmHg 64%
    01:00 +20°C° 0 mm 1 mps 755 mmHg 67%
    02:00 +20°C° 0 mm 1 mps 755 mmHg 67%
    03:00 +19°C° 0 mm 1 mps 755 mmHg 67%
    04:00 +19°C° 0 mm 1 mps 755 mmHg 67%
    05:00 +20°C° 0 mm 1 mps 755 mmHg 65%
    06:00 +20°C° 0 mm 1 mps 755 mmHg 63%
    07:00 +21°C° 0 mm 1 mps 755 mmHg 60%
    08:00 +23°C° 0 mm 1 mps 755 mmHg 55%
    09:00 +24°C° 0 mm 1 mps 755 mmHg 49%
    10:00 +26°C° 0 mm 1 mps 755 mmHg 44%
    11:00 +27°C° 0 mm 1 mps 755 mmHg 43%
    12:00 +27°C° 0 mm 2 mps 755 mmHg 42%
    13:00 +28°C° 0 mm 2 mps 755 mmHg 42%
    14:00 +27°C° 0 mm 3 mps 755 mmHg 47%
    15:00 +26°C° 0 mm 3 mps 755 mmHg 52%
    16:00 +25°C° 0 mm 3 mps 755 mmHg 57%
    17:00 +23°C° 0 mm 2 mps 755 mmHg 63%
    18:00 +21°C° 0 mm 2 mps 755 mmHg 68%
    19:00 +19°C° 0 mm 2 mps 755 mmHg 73%
    20:00 +20°C° 0 mm 1 mps 755 mmHg 73%
    21:00 +20°C° 0 mm 1 mps 756 mmHg 74%
    22:00 +20°C° 0 mm 1 mps 756 mmHg 74%
    23:00 +20°C° 0 mm 1 mps 756 mmHg 75%

    Tomorrow, 18 October, Friday

    Time Temperature Precipitation Wind Pressure Humidity
    00:00 +19°C° 0 mm 1 mps 756 mmHg 75%
    01:00 +19°C° 0 mm 1 mps 755 mmHg 75%
    02:00 +19°C° 0 mm 1 mps 755 mmHg 76%
    03:00 +19°C° 0 mm 1 mps 755 mmHg 76%
    04:00 +18°C° 0 mm 1 mps 755 mmHg 77%
    05:00 +19°C° 0 mm 1 mps 755 mmHg 75%
    06:00 +19°C° 0 mm 1 mps 755 mmHg 73%
    07:00 +20°C° 0 mm 1 mps 755 mmHg 71%
    08:00 +22°C° 0 mm 1 mps 755 mmHg 64%
    09:00 +24°C° 0 mm 1 mps 755 mmHg 56%
    10:00 +23°C° 0 mm 0 mps 755 mmHg 49%
    11:00 +26°C° 0 mm 1 mps 755 mmHg 48%
    12:00 +27°C° 0 mm 2 mps 755 mmHg 47%
    13:00 +27°C° 0 mm 3 mps 754 mmHg 46%
    14:00 +26°C° 0 mm 3 mps 754 mmHg 51%
    15:00 +25°C° 0 mm 3 mps 754 mmHg 57%
    16:00 +24°C° 0 mm 3 mps 754 mmHg 62%
    17:00 +23°C° 0 mm 2 mps 754 mmHg 67%
    18:00 +21°C° 0 mm 1 mps 755 mmHg 73%
    19:00 +20°C° 0 mm 1 mps 755 mmHg 78%
    20:00 +18°C° 0 mm 0 mps 755 mmHg 79%
    21:00 +18°C° 0 mm 0 mps 755 mmHg 79%
    22:00 +17°C° 0 mm 0 mps 755 mmHg 80%
    23:00 +17°C° 0 mm 0 mps 755 mmHg 80%

    Day after tomorrow, 19 October, Saturday

    Time Temperature Precipitation Wind Pressure Humidity
    00:00 +19°C° 0 mm 1 mps 755 mmHg 81%
    01:00 +19°C° 0 mm 1 mps 755 mmHg 81%
    02:00 +18°C° 0 mm 1 mps 755 mmHg 81%
    03:00 +18°C° 0 mm 1 mps 755 mmHg 80%
    04:00 +18°C° 0 mm 1 mps 755 mmHg 80%
    05:00 +19°C° 0 mm 1 mps 755 mmHg 78%
    06:00 +19°C° 0 mm 1 mps 755 mmHg 75%
    07:00 +19°C° 0 mm 1 mps 755 mmHg 72%
    08:00 +21°C° 0 mm 1 mps 755 mmHg 66%
    09:00 +23°C° 0 mm 1 mps 756 mmHg 59%
    10:00 +25°C° 0 mm 1 mps 756 mmHg 53%
    11:00 +25°C° 0 mm 1 mps 755 mmHg 51%
    12:00 +26°C° 0 mm 2 mps 755 mmHg 49%
    13:00 +27°C° 0 mm 2 mps 755 mmHg 47%
    14:00 +26°C° 0 mm 2 mps 755 mmHg 52%
    15:00 +25°C° 0 mm 2 mps 755 mmHg 57%
    16:00 +24°C° 0 mm 2 mps 755 mmHg 62%
    17:00 +22°C° 0 mm 1 mps 755 mmHg 68%
    18:00 +21°C° 0 mm 1 mps 755 mmHg 74%
    19:00 +20°C° 0 mm 1 mps 756 mmHg 80%
    20:00 +20°C° 0 mm 1 mps 756 mmHg 81%
    21:00 +19°C° 0 mm 1 mps 756 mmHg 81%
    22:00 +18°C° 0 mm 2 mps 757 mmHg 82%
    23:00 +19°C° 0 mm 1 mps 757 mmHg 82%

    20 October, Sunday

    Time Temperature Precipitation Wind Pressure Humidity
    00:00 +19°C° 0 mm 1 mps 757 mmHg 83%
    01:00 +18°C° 0 mm 1 mps 757 mmHg 83%
    02:00 +18°C° 0 mm 1 mps 757 mmHg 84%
    03:00 +18°C° 0 mm 1 mps 757 mmHg 84%
    04:00 +18°C° 0 mm 1 mps 757 mmHg 84%
    05:00 +18°C° 0 mm 1 mps 757 mmHg 81%
    06:00 +19°C° 0 mm 1 mps 757 mmHg 78%
    07:00 +19°C° 0 mm 1 mps 757 mmHg 76%
    08:00 +21°C° 0 mm 1 mps 757 mmHg 68%
    09:00 +23°C° 0 mm 1 mps 757 mmHg 61%
    10:00 +25°C° 0 mm 1 mps 757 mmHg 53%
    11:00 +26°C° 0 mm 1 mps 757 mmHg 51%
    12:00 +26°C° 0 mm 2 mps 757 mmHg 48%
    13:00 +27°C° 0 mm 2 mps 756 mmHg 46%
    14:00 +26°C° 0 mm 2 mps 756 mmHg 51%
    15:00 +25°C° 0 mm 2 mps 756 mmHg 56%
    16:00 +24°C° 0 mm 1 mps 756 mmHg 60%
    17:00 +23°C° 0 mm 1 mps 756 mmHg 66%
    18:00 +21°C° 0 mm 1 mps 757 mmHg 71%
    19:00 +20°C° 0 mm 1 mps 757 mmHg 77%
    20:00 +20°C° 0 mm 1 mps 757 mmHg 77%
    21:00 +19°C° 0 mm 1 mps 757 mmHg 77%
    22:00 +19°C° 0 mm 1 mps 758 mmHg 78%
    23:00 +19°C° 0 mm 1 mps 758 mmHg 78%

    21 October, Monday

    Time Temperature Precipitation Wind Pressure Humidity
    00:00 +19°C° 0 mm 1 mps 757 mmHg 78%
    01:00 +19°C° 0 mm 1 mps 757 mmHg 78%
    02:00 +18°C° 0 mm 1 mps 757 mmHg 78%
    03:00 +18°C° 0 mm 1 mps 757 mmHg 77%
    04:00 +18°C° 0 mm 1 mps 757 mmHg 77%
    05:00 +18°C° 0 mm 1 mps 757 mmHg 74%
    06:00 +19°C° 0 mm 1 mps 757 mmHg 71%
    07:00 +19°C° 0 mm 1 mps 757 mmHg 67%
    08:00 +22°C° 0 mm 1 mps 757 mmHg 60%
    09:00 +24°C° 0 mm 1 mps 757 mmHg 52%
    10:00 +26°C° 0 mm 1 mps 757 mmHg 44%
    11:00 +27°C° 0 mm 1 mps 757 mmHg 42%
    12:00 +27°C° 0 mm 2 mps 757 mmHg 40%
    13:00 +28°C° 0 mm 2 mps 757 mmHg 38%
    14:00 +27°C° 0 mm 2 mps 756 mmHg 42%
    15:00 +26°C° 0 mm 2 mps 756 mmHg 46%
    16:00 +25°C° 0 mm 2 mps 756 mmHg 50%
    17:00 +23°C° 0 mm 2 mps 756 mmHg 54%
    18:00 +22°C° 0 mm 1 mps 756 mmHg 57%
    19:00 +20°C° 0 mm 1 mps 757 mmHg 61%
    20:00 +20°C° 0 mm 1 mps 757 mmHg 61%
    21:00 +20°C° 0 mm 1 mps 757 mmHg 61%
    22:00 +20°C° 0 mm 1 mps 757 mmHg 61%
    23:00 +20°C° 0 mm 1 mps 757 mmHg 61%

    22 October, Tuesday

    Time Temperature Precipitation Wind Pressure Humidity
    00:00 +19°C° 0 mm 1 mps 757 mmHg 60%
    01:00 +19°C° 0 mm 1 mps 757 mmHg 60%
    02:00 +19°C° 0 mm 1 mps 757 mmHg 60%
    03:00 +19°C° 0 mm 1 mps 757 mmHg 59%
    04:00 +19°C° 0 mm 1 mps 757 mmHg 59%
    05:00 +19°C° 0 mm 1 mps 757 mmHg 57%
    06:00 +19°C° 0 mm 1 mps 757 mmHg 56%
    07:00 +20°C° 0 mm 1 mps 757 mmHg 55%
    08:00 +22°C° 0 mm 1 mps 757 mmHg 48%
    09:00 +25°C° 0 mm 1 mps 757 mmHg 42%
    10:00 +27°C° 0 mm 1 mps 757 mmHg 35%
    11:00 +28°C° 0 mm 2 mps 757 mmHg 35%
    12:00 +28°C° 0 mm 3 mps 756 mmHg 34%
    13:00 +29°C° 0 mm 3 mps 756 mmHg 34%
    14:00 +28°C° 0 mm 4 mps 756 mmHg 38%
    15:00 +26°C° 0 mm 4 mps 756 mmHg 42%
    16:00 +25°C° 0 mm 4 mps 755 mmHg 47%
    17:00 +24°C° 0 mm 3 mps 756 mmHg 50%
    18:00 +21°C° 0 mm 2 mps 756 mmHg 53%
    19:00 +21°C° 0 mm 1 mps 756 mmHg 57%
    20:00 +21°C° 0 mm 1 mps 756 mmHg 57%
    21:00 +21°C° 0 mm 1 mps 756 mmHg 56%
    22:00 +20°C° 0 mm 1 mps 757 mmHg 56%
    23:00 +20°C° 0 mm 1 mps 756 mmHg 55%
    Show more